Location: Cowley
(49.5667°N, 114.0667°W)
Time: 12:08:56
(UTC+00:00)

Envisat - Pass Details

Date: 04 December 2021
Orbit: 764 x 766 km, 98.2° (Epoch: 25 January)

Event Time Altitude Azimuth Distance (km) Brightness Sun altitude
Rises 00:07:21 0° 181° (S) 3,220 6.7 -4.9°
Reaches altitude 10° 00:09:44 10° 188° (S) 2,299 6.0 -5.2°
Maximum altitude 00:14:36 47° 261° (W) 1,018 4.3 -5.9°
Drops below altitude 10° 00:19:31 10° 335° (NNW) 2,316 5.5 -6.6°
Sets 00:21:56 0° 342° (NNW) 3,247 6.2 -7.0°
